Time,TemperatureF,DewpointF,PressureIn,WindDirection,WindDirectionDegrees,WindSpeedMPH,WindSpeedGustMPH,Humidity,HourlyPrecipIn,Conditions,Clouds,dailyrainin,SolarRadiationWatts/m^2,SoftwareType,DateUTC
2013-07-20 00:01:00,73.0,50.0,-100.00,NW,304,11.0,16.0,44,0.00,,,0.00,0.000000,,2013-07-20 07:01:00,
2013-07-20 00:12:00,73.0,50.0,-100.00,NW,304,11.0,16.0,44,0.00,,,0.00,0.000000,,2013-07-20 07:12:00,
2013-07-20 00:22:00,73.0,50.0,-100.00,NW,304,11.0,16.0,44,0.00,,,0.00,0.000000,,2013-07-20 07:22:00,
2013-07-20 00:54:00,70.0,52.0,-100.00,WNW,283,7.0,15.0,53,0.00,,,0.00,0.000000,,2013-07-20 07:54:00,
2013-07-20 01:01:00,70.0,52.0,-100.00,WNW,283,7.0,15.0,53,0.00,,,0.00,0.000000,,2013-07-20 08:01:00,
2013-07-20 01:11:00,70.0,52.0,-100.00,WNW,283,7.0,15.0,53,0.00,,,0.00,0.000000,,2013-07-20 08:11:00,
2013-07-20 01:22:00,70.0,52.0,-100.00,WNW,283,7.0,15.0,53,0.00,,,0.00,0.000000,,2013-07-20 08:22:00,
2013-07-20 01:52:00,68.0,53.0,-100.00,WNW,301,10.0,11.0,58,0.00,,,0.00,0.000000,,2013-07-20 08:52:00,
2013-07-20 02:02:00,68.0,53.0,-100.00,WNW,301,10.0,11.0,58,0.00,,,0.00,0.000000,,2013-07-20 09:02:00,
2013-07-20 02:11:00,68.0,53.0,-100.00,WNW,301,10.0,11.0,58,0.00,,,0.00,0.000000,,2013-07-20 09:11:00,
2013-07-20 02:22:00,68.0,53.0,-100.00,WNW,301,10.0,11.0,58,0.00,,,0.00,0.000000,,2013-07-20 09:22:00,
2013-07-20 03:01:00,68.0,52.0,-100.00,WNW,301,11.0,15.0,57,0.00,,,0.00,0.000000,,2013-07-20 10:01:00,
2013-07-20 03:11:00,68.0,52.0,-100.00,WNW,301,11.0,15.0,57,0.00,,,0.00,0.000000,,2013-07-20 10:11:00,
2013-07-20 03:21:00,68.0,52.0,-100.00,WNW,301,11.0,15.0,57,0.00,,,0.00,0.000000,,2013-07-20 10:21:00,
2013-07-20 04:01:00,67.0,52.0,-100.00,WNW,294,12.0,15.0,58,0.00,,,0.00,0.000000,,2013-07-20 11:01:00,
2013-07-20 04:11:00,67.0,52.0,-100.00,WNW,294,12.0,15.0,58,0.00,,,0.00,0.000000,,2013-07-20 11:11:00,
2013-07-20 04:22:00,67.0,52.0,-100.00,WNW,294,12.0,15.0,58,0.00,,,0.00,0.000000,,2013-07-20 11:22:00,
2013-07-20 05:01:00,66.0,50.0,-100.00,WNW,282,8.0,13.0,57,0.00,,,0.00,0.000000,,2013-07-20 12:01:00,
2013-07-20 05:11:00,66.0,50.0,-100.00,WNW,282,8.0,13.0,57,0.00,,,0.00,0.000000,,2013-07-20 12:11:00,
2013-07-20 05:22:00,66.0,50.0,-100.00,WNW,282,8.0,13.0,57,0.00,,,0.00,0.000000,,2013-07-20 12:22:00,
2013-07-20 05:52:00,65.0,51.0,-100.00,WNW,293,9.0,11.0,60,0.00,,,0.00,1.000000,,2013-07-20 12:52:00,
2013-07-20 06:01:00,65.0,51.0,-100.00,WNW,293,9.0,11.0,60,0.00,,,0.00,1.000000,,2013-07-20 13:01:00,
2013-07-20 06:11:00,65.0,51.0,-100.00,WNW,293,9.0,11.0,60,0.00,,,0.00,1.000000,,2013-07-20 13:11:00,
2013-07-20 06:22:00,65.0,51.0,-100.00,WNW,293,9.0,11.0,60,0.00,,,0.00,1.000000,,2013-07-20 13:22:00,
2013-07-20 07:02:00,68.0,50.0,-100.00,WNW,298,4.0,11.0,52,0.00,,,0.00,77.000000,,2013-07-20 14:02:00,
2013-07-20 07:11:00,68.0,50.0,-100.00,WNW,298,4.0,11.0,52,0.00,,,0.00,77.000000,,2013-07-20 14:11:00,
2013-07-20 07:22:00,68.0,50.0,-100.00,WNW,298,4.0,11.0,52,0.00,,,0.00,77.000000,,2013-07-20 14:22:00,
2013-07-20 08:11:00,73.0,53.0,-100.00,SSW,197,2.0,6.0,49,0.00,,,0.00,253.000000,,2013-07-20 15:11:00,
2013-07-20 08:22:00,73.0,53.0,-100.00,SSW,197,2.0,6.0,49,0.00,,,0.00,253.000000,,2013-07-20 15:22:00,
2013-07-20 09:01:00,78.0,50.0,-100.00,West,266,7.0,11.0,37,0.00,,,0.00,454.000000,,2013-07-20 16:01:00,
2013-07-20 09:11:00,78.0,50.0,-100.00,West,266,7.0,11.0,37,0.00,,,0.00,454.000000,,2013-07-20 16:11:00,
2013-07-20 09:22:00,78.0,50.0,-100.00,West,266,7.0,11.0,37,0.00,,,0.00,454.000000,,2013-07-20 16:22:00,
2013-07-20 09:52:00,81.0,48.0,-100.00,West,278,10.0,13.0,32,0.00,,,0.00,646.000000,,2013-07-20 16:52:00,
2013-07-20 10:02:00,81.0,48.0,-100.00,West,278,10.0,13.0,32,0.00,,,0.00,646.000000,,2013-07-20 17:02:00,
2013-07-20 10:11:00,81.0,48.0,-100.00,West,278,10.0,13.0,32,0.00,,,0.00,646.000000,,2013-07-20 17:11:00,
2013-07-20 10:22:00,81.0,48.0,-100.00,West,278,10.0,13.0,32,0.00,,,0.00,646.000000,,2013-07-20 17:22:00,
2013-07-20 10:53:00,85.0,45.0,-100.00,WNW,294,8.0,14.0,25,0.00,,,0.00,815.000000,,2013-07-20 17:53:00,
2013-07-20 11:01:00,85.0,45.0,-100.00,WNW,294,8.0,14.0,25,0.00,,,0.00,815.000000,,2013-07-20 18:01:00,
2013-07-20 11:11:00,85.0,45.0,-100.00,WNW,294,8.0,14.0,25,0.00,,,0.00,815.000000,,2013-07-20 18:11:00,
2013-07-20 11:23:00,85.0,45.0,-100.00,WNW,294,8.0,14.0,25,0.00,,,0.00,815.000000,,2013-07-20 18:23:00,
2013-07-20 12:04:00,89.0,37.0,-100.00,NW,308,8.0,12.0,16,0.00,,,0.00,948.000000,,2013-07-20 19:04:00,
2013-07-20 12:14:00,89.0,37.0,-100.00,NW,308,8.0,12.0,16,0.00,,,0.00,948.000000,,2013-07-20 19:14:00,
2013-07-20 12:23:00,89.0,37.0,-100.00,NW,308,8.0,12.0,16,0.00,,,0.00,948.000000,,2013-07-20 19:23:00,
2013-07-20 13:04:00,92.0,44.0,-100.00,West,280,6.0,12.0,19,0.00,,,0.00,1023.000000,,2013-07-20 20:04:00,
2013-07-20 13:14:00,92.0,44.0,-100.00,West,280,6.0,12.0,19,0.00,,,0.00,1023.000000,,2013-07-20 20:14:00,
2013-07-20 13:22:00,92.0,44.0,-100.00,West,280,6.0,12.0,19,0.00,,,0.00,1023.000000,,2013-07-20 20:22:00,
2013-07-20 13:56:00,95.0,40.0,-100.00,West,259,6.0,12.0,15,0.00,,,0.00,1040.000000,,2013-07-20 20:56:00,
2013-07-20 14:02:00,95.0,40.0,-100.00,West,259,6.0,12.0,15,0.00,,,0.00,1040.000000,,2013-07-20 21:02:00,
2013-07-20 14:12:00,95.0,40.0,-100.00,West,259,6.0,12.0,15,0.00,,,0.00,1040.000000,,2013-07-20 21:12:00,
2013-07-20 14:23:00,95.0,40.0,-100.00,West,259,6.0,12.0,15,0.00,,,0.00,1040.000000,,2013-07-20 21:23:00,
2013-07-20 14:56:00,98.0,32.0,-100.00,SE,137,4.0,12.0,10,0.00,,,0.00,1025.000000,,2013-07-20 21:56:00,
2013-07-20 15:04:00,98.0,32.0,-100.00,SE,137,4.0,12.0,10,0.00,,,0.00,1025.000000,,2013-07-20 22:04:00,
2013-07-20 15:13:00,98.0,32.0,-100.00,SE,137,4.0,12.0,10,0.00,,,0.00,1025.000000,,2013-07-20 22:13:00,
2013-07-20 15:23:00,98.0,32.0,-100.00,SE,137,4.0,12.0,10,0.00,,,0.00,1025.000000,,2013-07-20 22:23:00,
2013-07-20 16:03:00,99.0,35.0,-100.00,NW,323,5.0,13.0,11,0.00,,,0.00,947.000000,,2013-07-20 23:03:00,
2013-07-20 16:14:00,99.0,35.0,-100.00,NW,323,5.0,13.0,11,0.00,,,0.00,947.000000,,2013-07-20 23:14:00,
2013-07-20 16:23:00,99.0,35.0,-100.00,NW,323,5.0,13.0,11,0.00,,,0.00,947.000000,,2013-07-20 23:23:00,
2013-07-20 16:56:00,100.0,31.0,-100.00,West,275,6.0,11.0,9,0.00,,,0.00,815.000000,,2013-07-20 23:56:00,
2013-07-20 17:22:00,100.0,31.0,-100.00,West,275,6.0,11.0,9,0.00,,,0.00,815.000000,,2013-07-21 00:22:00,
2013-07-20 18:11:00,99.0,35.0,-100.00,WNW,300,6.0,9.0,11,0.00,,,0.00,641.000000,,2013-07-21 01:11:00,
2013-07-20 18:23:00,99.0,35.0,-100.00,WNW,300,6.0,9.0,11,0.00,,,0.00,641.000000,,2013-07-21 01:23:00,
2013-07-20 18:59:00,95.0,38.0,-100.00,West,277,13.0,19.0,14,0.00,,,0.00,447.000000,,2013-07-21 01:59:00,
2013-07-20 19:13:00,95.0,38.0,-100.00,West,277,13.0,19.0,14,0.00,,,0.00,447.000000,,2013-07-21 02:13:00,
2013-07-20 19:23:00,95.0,38.0,-100.00,West,277,13.0,19.0,14,0.00,,,0.00,447.000000,,2013-07-21 02:23:00,
2013-07-20 19:57:00,89.0,40.0,-100.00,West,276,13.0,21.0,18,0.00,,,0.00,260.000000,,2013-07-21 02:57:00,
2013-07-20 20:03:00,89.0,40.0,-100.00,West,276,13.0,21.0,18,0.00,,,0.00,260.000000,,2013-07-21 03:03:00,
2013-07-20 20:23:00,89.0,40.0,-100.00,West,276,13.0,21.0,18,0.00,,,0.00,260.000000,,2013-07-21 03:23:00,
2013-07-20 21:53:00,76.0,46.0,-100.00,WNW,295,14.0,22.0,34,0.00,,,0.00,4.000000,,2013-07-21 04:53:00,
2013-07-20 22:11:00,76.0,46.0,-100.00,WNW,295,14.0,22.0,34,0.00,,,0.00,4.000000,,2013-07-21 05:11:00,
2013-07-20 22:21:00,76.0,46.0,-100.00,WNW,295,14.0,22.0,34,0.00,,,0.00,4.000000,,2013-07-21 05:21:00,
2013-07-20 22:52:00,71.0,47.0,-100.00,WNW,297,12.0,18.0,43,0.00,,,0.00,0.000000,,2013-07-21 05:52:00,
2013-07-20 23:11:00,71.0,47.0,-100.00,WNW,297,12.0,18.0,43,0.00,,,0.00,0.000000,,2013-07-21 06:11:00,
2013-07-20 23:22:00,71.0,47.0,-100.00,WNW,297,12.0,18.0,43,0.00,,,0.00,0.000000,,2013-07-21 06:22:00,